Location: Oberkirch
(48.5323°N, 8.0787°E)
Time: 03:58:11
(UTC+00:00)

CUBEBUG 2 - Pass Details

Date: 15 March 2026
Orbit: 548 x 627 km, 97.9° (Epoch: 17 April)

Event Time Altitude Azimuth Distance (km) Brightness Sun altitude
Rises 01:56:27 0° 13° (NNE) 2,892 ? -34.8°
Reaches altitude 10° 01:58:38 10° 14° (NNE) 1,992 ? -34.6°
Enters shadow 01:59:48 18° 14° (NNE) 1,518 ? -34.4°
